QPF
0.00 0.00 0.00 0.00 0.00 0.00 0.00 0.00 0.00 0.00 0.00 0.00 0.00 0.00 0.00 0.00 0.00 0.00 0.00 0.00 0.00 0.00 0.00 0.00 0.00 0.00 0.00 0.00 0.00 0.00 0.00 0.00 0.00 0.00 0.00 0.00 0.00 0.00 0.00 0.00 0.00 0.00 0.00 0.00 0.00 0.00 0.00 0.00 0.00
0.00 0.00 0.00 0.00 0.00 0.00 0.00 0.00 0.00 0.00 0.00 0.00 0.00 0.00 0.00 0.01 0.00 0.00 0.00 0.00 0.00 0.00 0.00 0.00 0.00 0.00 0.00 0.00 0.00 0.00 0.00 0.00 0.00 0.00 0.00 0.00 0.00 0.00 0.00 0.00 0.00 0.00 0.00 0.00 0.00 0.00 0.00 0.00 0.00
0.00 0.00 0.00 0.00 0.00 0.00 0.00 0.00 0.00 0.00 0.00 0.00 0.00 0.00 0.02 0.01 0.00 0.00 0.00 0.00 0.00 0.00 0.00 0.00 0.00 0.00 0.00 0.00 0.00 0.00 0.00 0.00 0.00 0.00 0.00 0.00 0.00 0.00 0.00 0.00 0.00 0.00 0.00 0.00 0.00 0.00 0.00 0.00 0.00
0.00 0.00 0.00 0.00 0.00 0.00 0.00 0.00 0.00 0.00 0.00 0.00 0.00 0.00 0.01 0.00 0.00 0.00 0.00 0.00 0.00 0.00 0.00 0.00 0.00 0.00 0.00 0.00 0.00 0.00 0.00 0.00 0.00 0.00 0.00 0.00 0.00 0.00 0.00 0.00 0.00 0.00 0.00 0.00 0.00 0.00 0.00 0.00 0.00
0.00 0.00 0.00 0.00 0.00 0.00 0.00 0.00 0.00 0.00 0.00 0.00 0.00 0.00 0.01 0.00 0.00 0.00 0.00 0.00 0.00 0.00 0.00 0.00 0.00 0.00 0.00 0.00 0.00 0.00 0.00 0.00 0.00 0.00 0.00 0.00 0.00 0.00 0.00 0.00 0.00 0.00 0.00 0.00 0.00 0.00 0.00 0.00 0.00
0.00 0.00 0.00 0.00 0.00 0.00 0.00 0.00 0.00 0.00 0.00 0.00 0.00 0.00 0.00 0.00 0.00 0.00 0.00 0.00 0.00 0.00 0.00 0.00 0.00 0.00 0.00 0.00 0.00 0.00 0.00 0.00 0.00 0.00 0.00 0.00 0.00 0.00 0.00 0.00 0.00 0.00 0.00 0.00 0.00 0.00 0.00 0.00 0.00
0.00 0.00 0.00 0.00 0.00 0.00 0.00 0.00 0.00 0.00 0.00 0.00 0.00 0.00 0.00 0.00 0.00 0.00 0.00 0.00 0.00 0.00 0.00 0.00 0.00 0.00 0.00 0.00 0.00 0.00 0.00 0.00 0.00 0.00 0.00 0.00 0.00 0.00 0.00 0.00 0.00 0.00 0.00 0.00 0.00 0.00 0.00 0.00 0.00
0.00 0.00 0.00 0.00 0.00 0.00 0.00 0.00 0.00 0.00 0.00 0.00 0.00 0.00 0.00 0.00 0.00 0.00 0.00 0.00 0.00 0.00 0.00 0.00 0.00 0.00 0.00 0.00 0.00 0.00 0.00 0.00 0.00 0.00 0.00 0.00 0.00 0.00 0.00 0.00 0.00 0.00 0.00 0.00 0.00 0.00 0.00 0.00 0.00
0.00 0.00 0.00 0.00 0.00 0.00 0.00 0.00 0.00 0.00 0.00 0.00 0.00 0.00 0.00 0.00 0.00 0.00 0.00 0.00 0.00 0.00 0.00 0.00 0.00 0.00 0.00 0.00 0.00 0.00 0.00 0.00 0.00 0.00 0.00 0.00 0.00 0.00 0.00 0.00 0.00 0.00 0.00 0.00 0.00 0.00 0.00 0.00 0.00
0.00 0.00 0.00 0.00 0.00 0.00 0.00 0.00 0.00 0.00 0.00 0.00 0.00 0.00 0.01 0.00 0.00 0.00 0.00 0.00 0.00 0.00 0.00 0.00 0.00 0.00 0.00 0.00 0.00 0.00 0.00 0.00 0.00 0.00 0.00 0.00 0.00 0.00 0.00 0.00 0.00 0.00 0.00 0.00 0.00 0.00 0.00 0.00 0.00
0.00 0.00 0.00 0.00 0.00 0.00 0.00 0.00 0.00 0.00 0.00 0.00 0.01 0.01 0.02 0.01 0.00 0.00 0.00 0.00 0.00 0.00 0.00 0.00 0.00 0.00 0.00 0.00 0.00 0.00 0.00 0.00 0.00 0.00 0.00 0.00 0.00 0.00 0.00 0.00 0.00 0.00 0.00 0.00 0.00 0.00 0.00 0.00 0.00
0.00 0.00 0.00 0.00 0.00 0.00 0.00 0.00 0.00 0.00 0.00 0.00 0.00 0.00 0.01 0.02 0.02 0.00 0.00 0.00 0.00 0.00 0.00 0.00 0.00 0.00 0.00 0.00 0.00 0.00 0.00 0.00 0.00 0.00 0.00 0.00 0.00 0.00 0.00 0.00 0.00 0.00 0.00 0.00 0.00 0.00 0.00 0.00 0.00
0.00 0.00 0.00 0.00 0.00 0.00 0.00 0.00 0.00 0.00 0.00 0.00 0.00 0.00 0.00 0.00 0.00 0.00 0.00 0.01 0.01 0.00 0.01 0.00 0.00 0.00 0.00 0.00 0.00 0.00 0.00 0.00 0.00 0.00 0.00 0.00 0.00 0.00 0.00 0.00 0.00 0.00 0.00 0.00 0.00 0.00 0.00 0.00 0.00
0.00 0.00 0.00 0.00 0.00 0.00 0.00 0.00 0.00 0.00 0.00 0.00 0.00 0.00 0.00 0.00 0.00 0.00 0.00 0.00 0.00 0.00 0.00 0.00 0.00 0.00 0.00 0.00 0.00 0.00 0.00 0.00 0.00 0.00 0.00 0.00 0.00 0.00 0.00 0.00 0.00 0.00 0.00 0.00 0.00 0.00 0.00 0.00 0.00
0.00 0.00 0.00 0.00 0.00 0.00 0.00 0.00 0.00 0.00 0.00 0.00 0.00 0.00 0.00 0.00 0.00 0.00 0.00 0.00 0.00 0.00 0.00 0.00 0.00 0.00 0.00 0.00 0.00 0.00 0.00 0.00 0.00 0.00 0.00 0.00 0.00 0.00 0.00 0.00 0.00 0.00 0.00 0.00 0.00 0.00 0.00 0.00 0.01
0.00 0.00 0.00 0.00 0.00 0.00 0.00 0.00 0.00 0.00 0.00 0.00 0.00 0.00 0.00 0.00 0.00 0.00 0.00 0.00 0.00 0.00 0.00 0.00 0.00 0.00 0.00 0.00 0.00 0.00 0.00 0.00 0.00 0.00 0.00 0.00 0.00 0.00 0.00 0.00 0.00 0.00 0.00 0.00 0.00 0.01 0.00 0.00 0.00
0.00 0.00 0.00 0.00 0.00 0.00 0.00 0.00 0.00 0.00 0.00 0.00 0.00 0.00 0.00 0.00 0.00 0.00 0.00 0.00 0.00 0.00 0.00 0.00 0.00 0.00 0.00 0.00 0.00 0.00 0.00 0.00 0.01 0.00 0.00 0.00 0.00 0.00 0.00 0.00 0.00 0.00 0.00 0.01 0.02 0.02 0.01 0.00 0.05
0.00 0.00 0.00 0.00 0.00 0.00 0.00 0.00 0.00 0.00 0.00 0.00 0.00 0.00 0.00 0.00 0.00 0.00 0.00 0.00 0.00 0.00 0.00 0.00 0.00 0.00 0.00 0.00 0.00 0.00 0.00 0.00 0.01 0.02 0.01 0.00 0.00 0.00 0.00 0.01 0.01 0.03 0.05 0.05 0.07 0.08 0.06 0.03 0.11
0.00 0.00 0.00 0.00 0.00 0.00 0.00 0.00 0.00 0.00 0.00 0.00 0.00 0.00 0.00 0.00 0.00 0.00 0.00 0.00 0.00 0.00 0.00 0.00 0.00 0.00 0.00 0.00 0.00 0.00 0.00 0.00 0.00 0.00 0.01 0.01 0.00 0.00 0.01 0.02 0.03 0.05 0.02 0.02 0.06 0.03 0.06 0.07 0.18
0.00 0.00 0.00 0.00 0.00 0.00 0.00 0.00 0.00 0.00 0.00 0.00 0.00 0.00 0.00 0.00 0.00 0.00 0.00 0.00 0.00 0.00 0.00 0.00 0.00 0.00 0.00 0.00 0.00 0.00 0.03 0.06 0.06 0.06 0.06 0.05 0.02 0.02 0.01 0.02 0.02 0.03 0.02 0.02 0.03 0.03 0.02 0.03 0.16
0.00 0.00 0.00 0.00 0.00 0.00 0.00 0.00 0.00 0.00 0.00 0.00 0.00 0.00 0.00 0.00 0.00 0.00 0.00 0.00 0.00 0.00 0.00 0.00 0.00 0.00 0.00 0.00 0.01 0.00 0.03 0.05 0.07 0.07 0.07 0.08 0.07 0.03 0.02 0.03 0.06 0.08 0.04 0.02 0.02 0.01 0.00 0.03 0.09
0.00 0.00 0.00 0.00 0.00 0.00 0.00 0.00 0.00 0.00 0.00 0.00 0.00 0.00 0.00 0.00 0.00 0.00 0.00 0.00 0.00 0.00 0.00 0.00 0.00 0.00 0.00 0.00 0.00 0.00 0.04 0.05 0.04 0.06 0.06 0.04 0.08 0.07 0.07 0.08 0.09 0.11 0.08 0.02 0.00 0.02 0.07 0.06 0.04
0.00 0.00 0.00 0.00 0.00 0.00 0.00 0.00 0.00 0.00 0.00 0.00 0.00 0.00 0.00 0.00 0.00 0.00 0.00 0.00 0.00 0.00 0.00 0.00 0.00 0.00 0.00 0.00 0.00 0.00 0.01 0.05 0.05 0.04 0.04 0.04 0.06 0.06 0.04 0.06 0.09 0.07 0.04 0.02 0.03 0.16 0.22 0.10 0.02
0.00 0.00 0.00 0.00 0.00 0.00 0.00 0.00 0.00 0.00 0.00 0.00 0.00 0.00 0.00 0.00 0.00 0.00 0.02 0.02 0.00 0.00 0.00 0.00 0.00 0.00 0.00 0.01 0.01 0.02 0.01 0.01 0.02 0.02 0.02 0.03 0.04 0.03 0.04 0.04 0.04 0.04 0.04 0.05 0.11 0.28 0.21 0.12 0.09
0.00 0.00 0.00 0.00 0.00 0.00 0.00 0.00 0.00 0.00 0.00 0.00 0.00 0.00 0.00 0.00 0.00 0.00 0.01 0.00 0.00 0.00 0.00 0.00 0.00 0.00 0.00 0.00 0.00 0.01 0.01 0.00 0.00 0.00 0.01 0.02 0.01 0.00 0.00 0.01 0.01 0.02 0.04 0.06 0.06 0.08 0.09 0.10 0.09
0.00 0.00 0.00 0.00 0.00 0.00 0.00 0.00 0.00 0.00 0.00 0.00 0.00 0.00 0.00 0.00 0.00 0.00 0.00 0.00 0.00 0.00 0.00 0.00 0.00 0.00 0.00 0.00 0.00 0.00 0.00 0.00 0.00 0.00 0.00 0.00 0.00 0.00 0.00 0.00 0.00 0.00 0.00 0.00 0.01 0.01 0.02 0.01 0.00
0.00 0.00 0.00 0.00 0.00 0.00 0.00 0.00 0.00 0.00 0.00 0.00 0.00 0.00 0.00 0.00 0.00 0.00 0.00 0.00 0.00 0.00 0.00 0.00 0.00 0.00 0.00 0.00 0.00 0.00 0.00 0.00 0.00 0.00 0.00 0.00 0.00 0.00 0.00 0.00 0.00 0.00 0.00 0.00 0.00 0.01 0.02 0.03 0.04
0.00 0.00 0.00 0.00 0.00 0.00 0.00 0.00 0.00 0.00 0.00 0.00 0.00 0.00 0.00 0.00 0.00 0.00 0.00 0.00 0.00 0.00 0.00 0.00 0.00 0.00 0.00 0.00 0.00 0.00 0.00 0.00 0.00 0.00 0.00 0.00 0.00 0.00 0.00 0.00 0.00 0.00 0.00 0.00 0.00 0.00 0.00 0.00 0.01
0.00 0.00 0.00 0.00 0.00 0.00 0.00 0.00 0.00 0.00 0.00 0.00 0.00 0.00 0.00 0.00 0.00 0.00 0.00 0.00 0.00 0.00 0.00 0.00 0.00 0.00 0.00 0.00 0.00 0.00 0.00 0.00 0.00 0.00 0.00 0.00 0.00 0.00 0.00 0.00 0.00 0.00 0.00 0.00 0.00 0.00 0.00 0.00 0.00
0.00 0.00 0.00 0.00 0.00 0.00 0.00 0.00 0.00 0.00 0.00 0.00 0.00 0.00 0.00 0.00 0.00 0.00 0.00 0.00 0.00 0.00 0.00 0.00 0.00 0.00 0.00 0.00 0.00 0.00 0.00 0.00 0.00 0.00 0.00 0.00 0.00 0.00 0.00 0.00 0.00 0.00 0.00 0.00 0.00 0.00 0.00 0.00 0.00
MSLP
1009.76 1009.22 1009.18 1009.47 1010.59 1010.61 1009.49 1008.32 1006.99 1006.14 1005.53 1004.25 1003.79 1003.83 1004.17 1004.82 1005.22 1006.31 1005.53 1005.91 1006.66 1007.44 1008.12 1008.70 1008.89 1009.27 1009.56 1010.01 1010.44 1010.68 1010.95 1011.40 1011.68 1012.02 1012.35 1012.63 1012.85 1013.06 1013.33 1013.67 1013.89 1013.87 1013.89 1013.90 1014.01 1014.09 1014.17 1014.27 1014.31
1009.78 1009.29 1009.25 1010.02 1010.95 1011.12 1009.48 1007.53 1006.98 1005.91 1005.05 1004.35 1004.22 1003.70 1004.06 1004.44 1004.80 1005.95 1006.31 1006.23 1006.35 1007.15 1007.94 1008.67 1009.06 1009.31 1009.91 1010.44 1010.79 1011.11 1011.35 1011.71 1012.08 1012.30 1012.61 1012.78 1013.00 1013.26 1013.58 1013.86 1014.14 1014.29 1014.26 1014.21 1014.21 1014.25 1014.35 1014.45 1014.50
1009.80 1009.73 1010.27 1010.72 1011.03 1010.93 1009.16 1006.90 1006.56 1005.47 1004.49 1004.52 1004.44 1004.63 1004.58 1004.46 1004.89 1005.22 1005.66 1006.21 1006.78 1007.47 1007.97 1008.75 1009.41 1009.72 1010.07 1010.55 1011.01 1011.46 1011.83 1012.11 1012.44 1012.81 1013.04 1013.23 1013.34 1013.65 1013.94 1014.19 1014.39 1014.49 1014.55 1014.63 1014.59 1014.46 1014.47 1014.51 1014.63
1009.94 1010.45 1011.18 1010.96 1010.60 1009.79 1008.18 1006.64 1006.16 1005.75 1004.32 1004.20 1004.07 1005.08 1005.17 1004.91 1005.03 1005.26 1006.11 1007.03 1007.84 1008.33 1008.37 1008.77 1009.89 1010.21 1010.53 1011.10 1011.39 1011.82 1012.34 1012.63 1012.95 1013.18 1013.44 1013.66 1013.64 1013.80 1014.21 1014.43 1014.56 1014.68 1014.79 1014.85 1014.89 1014.81 1014.71 1014.70 1014.70
1010.29 1011.14 1011.67 1011.28 1010.07 1008.94 1007.49 1006.60 1005.90 1005.83 1005.02 1003.85 1004.27 1004.68 1005.31 1005.55 1005.74 1005.98 1006.49 1007.79 1008.59 1009.46 1009.51 1009.62 1010.22 1010.63 1010.88 1011.33 1011.83 1012.11 1012.60 1012.95 1013.31 1013.63 1013.88 1014.15 1014.14 1014.21 1014.30 1014.39 1014.42 1014.55 1014.74 1014.99 1015.06 1015.01 1014.95 1014.92 1014.83
1010.83 1011.47 1012.04 1011.17 1009.83 1008.45 1007.14 1006.39 1005.84 1005.40 1004.43 1004.13 1004.64 1004.89 1006.26 1006.64 1006.41 1007.02 1007.45 1008.42 1009.40 1009.91 1010.09 1010.21 1010.75 1011.21 1011.50 1011.81 1012.11 1012.48 1012.83 1013.24 1013.45 1013.63 1013.97 1014.36 1014.52 1014.55 1014.56 1014.64 1014.57 1014.59 1014.70 1014.86 1015.08 1015.14 1015.04 1014.99 1014.92
1010.90 1011.56 1011.39 1010.63 1009.58 1008.26 1006.92 1006.17 1005.85 1005.53 1005.53 1005.05 1004.68 1005.57 1006.60 1007.16 1007.00 1007.49 1008.16 1008.99 1009.71 1010.13 1010.49 1010.47 1010.91 1011.49 1011.83 1012.12 1012.34 1012.58 1012.96 1013.30 1013.71 1013.67 1013.97 1014.36 1014.57 1014.69 1014.80 1014.85 1014.90 1014.80 1014.79 1014.87 1015.06 1015.09 1015.00 1014.96 1014.93
1010.69 1011.17 1011.10 1010.17 1009.18 1007.96 1006.86 1006.13 1005.77 1005.25 1005.49 1005.26 1005.59 1005.89 1007.40 1007.57 1007.80 1008.36 1009.18 1009.67 1010.10 1010.67 1010.93 1011.11 1011.39 1011.85 1012.16 1012.37 1012.53 1012.71 1013.01 1013.16 1013.55 1013.80 1014.07 1014.39 1014.66 1014.74 1014.82 1014.81 1014.93 1015.07 1015.04 1014.98 1015.02 1015.03 1014.94 1014.72 1014.68
1010.33 1011.32 1011.07 1009.73 1008.66 1007.81 1006.86 1006.39 1005.92 1005.80 1005.80 1005.95 1006.52 1006.49 1007.65 1007.73 1008.16 1008.67 1009.73 1010.38 1010.67 1010.96 1011.17 1011.43 1011.66 1012.14 1012.52 1012.86 1012.95 1013.05 1013.36 1013.59 1013.81 1013.95 1014.24 1014.46 1014.71 1014.82 1014.87 1014.97 1014.97 1014.93 1014.96 1014.97 1014.95 1014.99 1014.89 1014.79 1014.76
1010.25 1010.90 1010.07 1008.97 1007.84 1007.46 1006.93 1006.61 1006.30 1006.38 1005.96 1006.54 1007.31 1007.52 1007.55 1008.04 1008.62 1009.16 1009.76 1010.43 1011.00 1011.20 1011.47 1011.74 1012.01 1012.27 1012.71 1013.00 1013.34 1013.65 1013.79 1013.87 1013.97 1014.14 1014.30 1014.59 1014.67 1014.85 1014.91 1014.95 1014.91 1014.94 1014.89 1014.88 1014.89 1014.82 1014.88 1014.86 1014.84
1010.07 1009.87 1009.19 1008.37 1007.64 1007.31 1007.00 1006.62 1006.74 1006.57 1006.94 1006.75 1007.43 1008.57 1008.09 1008.60 1009.44 1009.69 1010.12 1010.43 1010.52 1010.76 1011.42 1011.98 1012.38 1012.61 1012.76 1013.08 1013.35 1013.63 1013.87 1013.79 1013.97 1014.26 1014.44 1014.58 1014.78 1014.95 1014.79 1014.82 1014.70 1014.81 1014.85 1014.93 1014.89 1014.98 1014.94 1014.77 1014.76
1009.77 1009.28 1008.73 1008.17 1007.76 1007.41 1007.30 1006.95 1007.09 1007.03 1007.06 1006.92 1006.90 1007.73 1008.25 1008.62 1009.70 1010.43 1010.39 1010.33 1010.69 1010.56 1010.79 1011.31 1012.21 1012.64 1012.70 1012.80 1013.08 1013.38 1013.79 1014.01 1013.80 1013.97 1014.20 1014.25 1014.58 1014.82 1014.70 1014.51 1014.44 1014.62 1014.55 1014.60 1014.82 1014.86 1014.75 1014.73 1014.62
1009.73 1009.30 1008.64 1008.07 1007.83 1007.64 1007.48 1007.42 1007.31 1007.63 1007.27 1007.06 1006.80 1007.49 1008.10 1009.23 1009.83 1010.23 1010.34 1010.62 1010.49 1010.48 1010.60 1010.50 1010.86 1011.41 1011.70 1012.14 1012.66 1013.07 1012.94 1013.39 1013.48 1013.68 1013.86 1013.97 1014.25 1014.54 1014.46 1014.24 1014.35 1014.38 1014.31 1014.32 1014.31 1014.57 1014.48 1014.43 1014.29
1009.67 1009.34 1008.69 1008.26 1008.00 1007.95 1007.80 1007.66 1007.50 1007.98 1007.58 1007.42 1006.97 1007.38 1007.99 1008.33 1009.13 1009.99 1010.50 1010.67 1010.91 1010.68 1010.45 1010.05 1010.31 1010.43 1010.74 1010.57 1010.87 1011.96 1012.67 1012.70 1013.06 1013.32 1013.45 1013.55 1013.78 1013.92 1014.24 1014.17 1013.97 1013.96 1013.81 1013.82 1013.98 1014.09 1014.18 1014.15 1014.06
1009.54 1009.66 1009.00 1008.20 1008.11 1008.14 1007.76 1007.75 1007.94 1007.52 1007.88 1007.92 1007.80 1007.74 1008.35 1008.60 1008.70 1008.97 1009.61 1010.27 1010.48 1010.31 1010.38 1009.56 1009.23 1009.40 1009.50 1009.48 1009.74 1009.70 1011.04 1011.57 1012.05 1012.54 1012.62 1012.79 1013.12 1013.34 1013.55 1013.88 1013.82 1013.40 1013.26 1013.20 1013.46 1013.62 1013.83 1013.93 1013.85
1009.94 1010.03 1009.35 1007.63 1008.00 1007.92 1008.07 1007.78 1007.71 1007.70 1007.56 1007.54 1007.95 1008.27 1008.25 1008.47 1008.38 1008.34 1009.36 1009.61 1009.98 1010.26 1009.86 1009.28 1009.38 1008.71 1008.88 1009.35 1009.32 1009.13 1009.98 1010.37 1011.41 1011.77 1012.02 1012.30 1012.50 1012.86 1012.99 1013.45 1013.42 1013.05 1013.07 1013.01 1013.41 1013.58 1013.73 1013.64 1013.58
1009.97 1009.47 1009.02 1008.58 1007.86 1007.88 1008.13 1008.09 1007.34 1007.68 1007.65 1007.61 1007.34 1008.54 1008.63 1008.41 1008.28 1008.13 1008.80 1009.20 1009.39 1009.68 1009.64 1009.62 1009.51 1009.64 1009.94 1009.78 1010.04 1010.46 1010.40 1010.50 1010.89 1011.50 1011.80 1011.63 1011.91 1012.31 1012.45 1012.75 1012.81 1012.84 1013.11 1013.28 1013.27 1013.16 1013.40 1013.35 1013.17
1009.03 1009.28 1008.94 1008.12 1008.20 1008.07 1008.18 1008.19 1007.63 1007.60 1007.78 1007.82 1007.92 1007.70 1008.91 1008.60 1008.30 1008.08 1008.62 1009.07 1009.35 1009.15 1009.10 1009.64 1009.73 1009.54 1009.84 1010.31 1010.76 1010.55 1010.37 1010.45 1010.51 1011.04 1011.27 1011.17 1011.29 1011.63 1011.84 1012.25 1012.45 1012.73 1012.87 1012.88 1012.93 1012.93 1012.94 1013.05 1013.22
1009.02 1009.18 1008.95 1008.45 1008.30 1008.23 1008.40 1008.30 1007.86 1007.35 1007.57 1008.05 1008.35 1008.39 1008.03 1008.49 1008.31 1008.63 1009.02 1009.28 1009.72 1009.84 1009.94 1010.13 1009.89 1009.89 1010.25 1011.03 1011.38 1010.92 1010.74 1010.64 1010.74 1010.91 1010.76 1011.01 1011.04 1011.30 1011.47 1011.76 1012.08 1012.18 1012.45 1012.27 1012.36 1012.53 1012.86 1012.82 1012.99
1009.07 1008.98 1008.83 1008.54 1008.35 1008.42 1008.54 1008.65 1008.17 1007.56 1007.34 1007.26 1007.87 1008.35 1008.15 1008.32 1008.54 1008.99 1009.13 1009.48 1009.77 1009.87 1009.85 1010.26 1010.15 1010.26 1010.56 1010.78 1010.85 1010.95 1010.99 1010.92 1010.80 1010.59 1010.50 1010.71 1010.95 1011.11 1011.11 1011.34 1011.64 1011.91 1012.08 1012.25 1012.24 1012.21 1012.31 1012.33 1012.30
1008.85 1008.87 1008.72 1008.62 1008.55 1008.59 1008.90 1009.14 1008.79 1008.08 1007.53 1007.36 1007.14 1007.22 1007.88 1008.21 1008.74 1009.07 1009.56 1009.56 1009.92 1010.06 1010.11 1010.44 1010.79 1010.68 1010.83 1010.84 1011.00 1011.11 1011.22 1011.07 1011.04 1010.80 1010.83 1011.37 1011.35 1010.81 1010.74 1011.13 1011.22 1011.61 1011.65 1011.77 1011.66 1011.84 1011.98 1012.41 1012.44
1008.54 1008.54 1008.65 1008.83 1009.03 1009.26 1009.12 1009.44 1009.07 1008.48 1007.89 1007.30 1007.13 1007.81 1007.89 1008.35 1008.88 1009.27 1009.82 1010.04 1010.22 1010.43 1010.38 1010.44 1010.66 1010.96 1011.25 1011.20 1011.45 1011.82 1011.74 1011.84 1012.16 1012.20 1012.02 1012.16 1011.78 1011.49 1011.49 1011.44 1011.84 1011.85 1011.65 1011.50 1011.36 1011.68 1011.78 1012.00 1012.31
1008.08 1008.09 1008.53 1008.85 1009.30 1009.76 1009.78 1010.03 1008.61 1008.36 1008.12 1007.59 1007.20 1007.07 1008.00 1008.30 1008.63 1009.32 1010.02 1010.06 1010.44 1010.85 1011.12 1011.26 1011.39 1011.71 1011.90 1011.71 1011.83 1012.00 1012.18 1012.70 1012.83 1013.02 1012.79 1012.56 1012.38 1012.22 1011.96 1011.87 1012.25 1012.16 1011.78 1011.83 1011.42 1011.42 1011.52 1011.66 1011.62
1007.14 1008.00 1008.61 1009.10 1009.96 1010.55 1010.12 1010.18 1009.29 1008.40 1007.55 1007.28 1006.99 1007.05 1007.41 1008.41 1008.90 1009.55 1010.43 1010.80 1010.99 1011.14 1011.21 1011.41 1011.57 1012.25 1012.36 1012.41 1012.72 1012.83 1013.03 1013.42 1013.61 1013.73 1013.54 1013.49 1013.15 1012.99 1012.60 1012.14 1012.12 1012.13 1012.00 1011.86 1011.56 1011.38 1011.13 1010.85 1010.71
1007.04 1008.20 1009.52 1010.24 1010.70 1010.41 1010.07 1010.44 1009.06 1007.57 1007.12 1006.95 1006.73 1006.87 1007.58 1008.28 1008.99 1009.92 1010.57 1011.31 1011.67 1011.71 1011.93 1012.06 1012.37 1013.15 1013.26 1013.38 1013.70 1014.07 1014.04 1014.19 1014.41 1014.48 1014.55 1014.38 1014.24 1013.94 1013.35 1012.98 1012.62 1012.35 1012.26 1011.97 1011.60 1011.60 1011.40 1011.30 1011.25
1007.10 1007.89 1008.96 1009.92 1010.67 1010.76 1010.11 1009.70 1008.29 1007.92 1007.44 1007.09 1006.67 1006.91 1007.73 1008.30 1008.79 1009.68 1010.59 1011.33 1011.66 1011.90 1012.10 1012.55 1012.82 1013.23 1013.43 1013.75 1014.09 1014.07 1013.91 1014.24 1014.59 1014.68 1014.58 1014.53 1014.46 1014.15 1013.80 1013.25 1012.98 1012.87 1012.53 1012.38 1012.12 1011.96 1011.65 1011.53 1011.40
1006.58 1007.44 1007.89 1009.18 1010.40 1011.18 1010.61 1009.16 1008.46 1007.97 1007.51 1007.16 1007.12 1007.00 1007.55 1008.15 1008.78 1009.55 1010.43 1010.90 1011.38 1011.79 1011.90 1012.07 1012.05 1012.48 1013.00 1013.45 1013.73 1013.99 1014.14 1014.36 1014.61 1014.58 1014.53 1014.62 1014.54 1014.42 1013.93 1013.76 1013.36 1012.94 1012.79 1012.70 1012.56 1012.21 1012.00 1011.77 1011.85
1005.13 1006.22 1008.17 1009.57 1010.83 1011.43 1011.07 1010.23 1009.41 1009.04 1008.47 1007.78 1007.64 1007.46 1007.70 1008.13 1009.01 1009.72 1010.27 1010.98 1011.42 1011.51 1011.63 1011.33 1011.87 1012.36 1012.75 1013.12 1013.54 1013.75 1013.98 1014.11 1014.27 1014.35 1014.53 1014.56 1014.43 1014.23 1014.21 1014.08 1013.72 1013.41 1013.07 1013.02 1012.82 1012.50 1012.33 1012.00 1011.98
1005.44 1006.30 1007.70 1008.73 1009.71 1011.05 1011.58 1010.53 1009.83 1009.29 1008.82 1008.23 1007.85 1008.00 1007.80 1007.94 1008.78 1009.62 1010.38 1010.93 1011.21 1011.31 1011.29 1011.77 1012.34 1012.44 1013.01 1013.21 1013.52 1013.61 1013.79 1013.92 1014.09 1014.17 1014.25 1014.16 1014.24 1014.35 1014.27 1014.09 1013.85 1013.63 1013.38 1013.28 1012.96 1012.62 1012.20 1011.93 1011.64
1004.12 1005.34 1006.69 1008.24 1010.18 1010.78 1010.88 1010.33 1009.58 1009.22 1008.86 1008.45 1008.16 1008.44 1008.80 1008.94 1009.38 1009.97 1010.49 1010.92 1011.14 1011.33 1011.67 1012.09 1012.37 1012.55 1013.09 1013.45 1013.71 1013.90 1014.02 1014.13 1014.30 1014.17 1014.13 1014.40 1014.51 1014.34 1014.30 1014.08 1013.84 1013.70 1013.45 1013.19 1012.86 1012.62 1012.27 1012.08 1011.72
Thickness
5780 5789 5795 5789 5758 5752 5752 5767 5790 5798 5798 5824 5837 5832 5825 5831 5821 5795 5855 5860 5857 5851 5845 5839 5837 5833 5831 5828 5825 5825 5823 5819 5818 5816 5814 5812 5809 5806 5803 5799 5795 5794 5794 5793 5790 5788 5786 5783 5780
5776 5785 5784 5767 5738 5727 5745 5779 5777 5796 5811 5823 5829 5831 5831 5823 5845 5835 5842 5857 5860 5855 5847 5840 5837 5835 5830 5826 5824 5822 5821 5819 5816 5814 5812 5810 5807 5804 5800 5797 5793 5790 5790 5790 5788 5786 5784 5781 5777
5768 5776 5759 5745 5728 5728 5744 5785 5785 5803 5822 5818 5820 5831 5827 5827 5842 5845 5855 5857 5856 5852 5849 5840 5833 5832 5829 5826 5824 5821 5819 5816 5813 5810 5808 5806 5805 5800 5797 5793 5790 5788 5786 5785 5783 5783 5781 5779 5776
5756 5753 5748 5730 5736 5754 5770 5788 5793 5795 5816 5827 5827 5810 5827 5839 5840 5850 5852 5849 5844 5843 5845 5841 5830 5827 5825 5821 5820 5818 5814 5812 5809 5807 5805 5803 5803 5800 5794 5791 5788 5786 5784 5782 5780 5778 5778 5775 5774
5743 5732 5718 5726 5741 5764 5783 5791 5796 5788 5803 5821 5822 5812 5815 5832 5840 5847 5848 5841 5835 5829 5831 5831 5826 5823 5822 5819 5816 5816 5812 5809 5806 5803 5801 5798 5798 5796 5794 5792 5791 5788 5784 5780 5778 5776 5774 5772 5771
5719 5717 5702 5716 5740 5767 5781 5786 5792 5793 5808 5818 5813 5813 5807 5825 5833 5835 5838 5832 5827 5823 5823 5823 5819 5816 5815 5814 5813 5811 5809 5805 5804 5802 5798 5794 5792 5792 5791 5789 5789 5788 5784 5781 5777 5774 5773 5770 5768
5707 5701 5706 5728 5741 5759 5772 5787 5786 5789 5789 5799 5821 5803 5808 5813 5827 5830 5830 5826 5821 5819 5818 5819 5817 5812 5811 5810 5810 5810 5806 5803 5800 5801 5797 5793 5791 5789 5788 5787 5785 5784 5782 5779 5775 5773 5771 5769 5765
5705 5703 5710 5726 5735 5750 5770 5779 5791 5794 5788 5809 5810 5799 5790 5806 5818 5819 5817 5817 5815 5813 5812 5812 5809 5806 5806 5806 5805 5806 5804 5804 5801 5798 5795 5791 5788 5787 5786 5786 5783 5779 5777 5776 5773 5771 5769 5769 5766
5706 5679 5691 5723 5737 5752 5767 5771 5788 5798 5791 5796 5797 5801 5803 5812 5813 5811 5806 5805 5807 5808 5808 5806 5804 5800 5798 5797 5798 5799 5797 5796 5795 5794 5791 5788 5786 5784 5783 5781 5780 5778 5775 5773 5771 5768 5766 5764 5762
5686 5673 5698 5733 5751 5755 5758 5767 5774 5775 5782 5779 5781 5793 5806 5806 5803 5800 5800 5797 5797 5799 5801 5803 5801 5798 5793 5791 5790 5789 5789 5790 5789 5788 5786 5783 5783 5780 5779 5777 5777 5774 5773 5771 5768 5766 5763 5760 5758
5683 5682 5712 5734 5744 5756 5753 5763 5769 5762 5759 5772 5772 5773 5792 5794 5790 5793 5792 5792 5793 5798 5797 5795 5792 5791 5790 5788 5786 5785 5784 5786 5786 5782 5781 5781 5778 5776 5777 5776 5776 5772 5770 5766 5764 5761 5759 5759 5756
5679 5697 5714 5727 5735 5742 5743 5759 5754 5758 5763 5778 5780 5782 5786 5788 5783 5781 5785 5791 5788 5797 5796 5795 5791 5790 5790 5793 5790 5787 5783 5780 5784 5781 5779 5781 5777 5774 5775 5776 5775 5770 5769 5767 5761 5759 5757 5754 5752
5673 5689 5707 5720 5726 5733 5742 5743 5749 5749 5766 5775 5779 5778 5780 5776 5777 5781 5787 5788 5790 5790 5791 5797 5798 5799 5801 5799 5796 5791 5791 5782 5780 5779 5778 5779 5776 5773 5772 5773 5770 5768 5766 5764 5762 5756 5753 5751 5749
5668 5680 5695 5710 5716 5721 5731 5737 5746 5746 5759 5762 5772 5771 5773 5778 5778 5778 5780 5783 5784 5788 5793 5805 5804 5808 5805 5808 5807 5797 5788 5787 5781 5778 5777 5778 5776 5776 5771 5771 5769 5766 5765 5762 5758 5753 5751 5749 5746
5663 5665 5682 5700 5708 5711 5727 5721 5729 5748 5750 5747 5755 5763 5760 5765 5775 5779 5782 5782 5785 5791 5791 5804 5812 5813 5813 5816 5811 5808 5795 5789 5784 5780 5781 5781 5778 5774 5771 5766 5764 5763 5762 5761 5757 5751 5747 5744 5741
5644 5656 5657 5706 5703 5709 5714 5701 5732 5742 5747 5749 5747 5750 5756 5762 5770 5781 5777 5778 5779 5782 5791 5799 5805 5814 5811 5809 5805 5804 5792 5800 5787 5781 5780 5777 5774 5768 5770 5763 5760 5758 5757 5757 5751 5746 5742 5741 5737
5633 5645 5651 5675 5698 5702 5700 5702 5729 5735 5741 5740 5748 5736 5745 5754 5765 5776 5777 5775 5776 5779 5785 5791 5796 5800 5799 5799 5796 5792 5792 5794 5787 5779 5774 5776 5773 5770 5767 5763 5759 5755 5751 5748 5745 5744 5740 5736 5733
5637 5642 5655 5675 5683 5688 5689 5696 5719 5726 5729 5732 5736 5744 5731 5744 5754 5766 5770 5772 5772 5774 5779 5785 5788 5792 5791 5787 5782 5783 5784 5784 5779 5775 5774 5772 5770 5767 5765 5759 5755 5749 5745 5742 5740 5737 5734 5731 5725
5643 5642 5653 5669 5679 5680 5676 5686 5704 5721 5726 5722 5723 5730 5740 5739 5749 5754 5758 5762 5762 5763 5762 5767 5780 5781 5776 5768 5764 5769 5770 5775 5770 5770 5769 5765 5765 5762 5759 5754 5746 5743 5739 5738 5733 5729 5724 5723 5719
5636 5638 5643 5664 5673 5670 5670 5673 5693 5713 5721 5728 5725 5724 5733 5736 5738 5742 5746 5750 5751 5753 5753 5751 5765 5766 5764 5761 5759 5757 5759 5760 5762 5764 5762 5759 5757 5752 5749 5747 5739 5735 5732 5729 5726 5723 5720 5718 5716
5626 5627 5640 5652 5664 5665 5659 5655 5674 5697 5711 5720 5728 5733 5732 5732 5729 5732 5733 5740 5741 5742 5742 5741 5743 5753 5752 5752 5750 5748 5748 5747 5747 5751 5749 5741 5738 5741 5741 5736 5733 5727 5724 5722 5722 5717 5713 5707 5706
5612 5633 5640 5644 5642 5626 5657 5631 5659 5676 5692 5712 5723 5718 5723 5725 5724 5723 5724 5726 5730 5731 5734 5734 5731 5734 5741 5742 5739 5734 5732 5730 5727 5725 5726 5723 5723 5723 5721 5719 5716 5715 5715 5715 5714 5709 5705 5702 5696
5618 5633 5632 5636 5630 5632 5636 5625 5650 5670 5676 5700 5710 5719 5712 5717 5719 5716 5715 5720 5720 5720 5720 5719 5718 5714 5713 5721 5725 5724 5720 5714 5711 5708 5709 5709 5710 5706 5707 5706 5701 5702 5706 5702 5702 5700 5698 5695 5693
5632 5626 5625 5624 5611 5596 5623 5623 5629 5657 5679 5694 5705 5711 5713 5706 5707 5710 5704 5705 5705 5707 5709 5711 5711 5703 5701 5699 5699 5701 5702 5698 5695 5692 5694 5692 5693 5691 5693 5694 5693 5693 5693 5691 5692 5691 5691 5690 5689
5619 5603 5579 5587 5586 5591 5624 5612 5633 5671 5681 5694 5703 5703 5701 5701 5703 5699 5697 5692 5690 5691 5693 5695 5693 5686 5686 5684 5680 5674 5676 5676 5674 5673 5671 5670 5670 5671 5675 5676 5677 5679 5678 5679 5680 5677 5677 5676 5673
5603 5603 5585 5589 5577 5594 5626 5608 5639 5669 5674 5680 5694 5694 5691 5695 5700 5696 5692 5686 5685 5684 5683 5681 5681 5676 5675 5672 5667 5666 5668 5665 5660 5658 5657 5657 5657 5658 5660 5663 5664 5663 5665 5663 5662 5661 5661 5658 5658
5611 5599 5622 5604 5609 5594 5608 5631 5656 5657 5667 5677 5682 5687 5688 5691 5693 5691 5685 5683 5681 5681 5680 5681 5681 5677 5672 5667 5663 5659 5657 5655 5652 5651 5649 5646 5645 5644 5647 5647 5648 5649 5646 5643 5642 5644 5644 5642 5638
5634 5635 5606 5595 5588 5590 5600 5613 5625 5640 5651 5667 5676 5678 5684 5687 5683 5682 5680 5676 5676 5679 5678 5682 5678 5672 5667 5663 5658 5656 5653 5649 5646 5643 5640 5638 5636 5635 5632 5630 5630 5629 5628 5626 5625 5624 5621 5623 5620
5622 5617 5612 5614 5603 5585 5584 5603 5630 5638 5647 5655 5670 5673 5679 5683 5679 5678 5674 5674 5675 5675 5677 5673 5667 5664 5658 5655 5650 5647 5644 5642 5638 5636 5633 5631 5626 5620 5617 5615 5614 5612 5611 5606 5605 5604 5605 5606 5606
5639 5631 5625 5594 5599 5598 5595 5598 5632 5638 5645 5650 5662 5667 5667 5667 5668 5668 5669 5669 5669 5671 5668 5665 5661 5658 5651 5645 5640 5637 5636 5634 5629 5627 5623 5616 5611 5609 5606 5605 5603 5599 5597 5593 5592 5591 5590 5588 5588